Location: Aranbee
(34.0885°N, 118.2342°W)
Time: 16:16:13
(UTC+00:00)

Explorer 7 - Visible Passes

Search period start: 24 September 2022 00:00
Search period end: 04 October 2022 00:00
Orbit: 482 x 668 km, 50.3° (Epoch: 23 September)

Date Brightness Start Highest point End Pass type
(mag) Time Alt. Az. Time Alt. Az. Time Alt. Az.
24 Sep 8.3 03:29:15 10° NNW 03:32:25 25° NNE 03:32:25 25° NNE visible
25 Sep 7.8 03:31:30 10° NW 03:34:52 36° NNE 03:34:52 36° NNE visible
26 Sep 7.2 03:33:51 10° NW 03:37:23 53° N 03:37:23 53° N visible
27 Sep 7.0 03:36:17 10° NW 03:39:59 66° WNW 03:39:59 66° WNW visible
28 Sep 7.6 03:38:53 10° WNW 03:42:42 44° SW 03:42:42 44° SW visible
29 Sep 7.6 02:00:55 10° NW 02:05:00 38° NE 02:08:50 10° ESE visible
29 Sep 8.5 03:41:43 10° WNW 03:45:11 26° SW 03:45:32 25° SW visible
30 Sep 7.0 02:03:14 10° NW 02:07:33 61° NE 02:11:34 10° ESE visible
30 Sep 9.3 03:45:02 10° W 03:47:27 15° SW 03:48:31 14° SW visible
01 Oct 7.0 02:05:40 10° NW 02:10:01 81° SW 02:14:04 10° SE visible
02 Oct 7.9 02:08:14 10° WNW 02:12:24 46° SW 02:16:18 10° SSE visible
03 Oct 8.9 02:11:01 10° WNW 02:14:41 27° SW 02:18:10 10° S visible
